星链-33759 (STARLINK-33759)

导读

STARLINK-33759是美国SpaceX公司星链(Starlink)星座的一员,于2025年5月14日发射入轨。作为低轨宽带通信卫星,它采用平板设计与氪工质霍尔推进器,搭载Ku/Ka波段通信载荷,依托自主避撞和离轨设计保障空间安全,助力星链实现全球高速互联网覆盖,进一步拓展星座的全球服务能力。

基本信息
目录编号:
64007
目录名称:
STARLINK-33759
国际标识:
2025-101P
轨道中心:
EARTH
卫星名称:
星链-33759
卫星全名:
星链-33759 (STARLINK-33759)
卫星状态:
在轨 (已飞行396 天)
发射日期:
2025-05-14 UTC
国别 :
美国 (US)
星等 :
--
轨道信息
数据来源 国际轨道数据
星历时间: 2026-06-14T01:09:39+0800
12小时前
查看轨道信息
半长轴: 6861.113km
偏心率: 0.0002391
轨道倾角: 42.998°
近地点辐角 276.643°
升交点赤经 175.435°
平近点角 83.415°
近地点: 481.335km
远地点: 484.617km
周期: 94.265分钟
每日圈数: 15.276045
详细信息
固有亮度:
5
最大亮度:
2.5
卫星平台:
Starlink V1.0
覆盖范围:
全球
运营商:
太空探索技术公司
运营商所在国:
美国
制造商(研发单位):
太空探索技术公司
制造商所在国:
美国
使用方式:
暂无
卫星简介
Starlink 计划是 SpaceX 推出的全球卫星互联网项目,通过发射低轨道卫星,为全球尤其是偏远地区提供高速、低延迟的互联网服务。自 2019 年起,Starlink 已部署数千颗卫星,旨在缩小全球数字鸿沟,推动互联网普及。该项目还为军事、航空等行业提供通信支持,带来广泛经济效益。
2D轨道图
3D轨道图
轨道高度分析图
轨道倾角分析图
轨道综合分析图
查看轨道综合分析图